#timestamp,LO_Frequency,Hit,StdDev 
1681056015.5,286047002.7,N
1681056035.4,286046999.9,N
1681056055.2,286047000.4,N
1681056075.0,286047000.3,N
1681056075.9,286047000.3,N
1681056095.8,286047000.6,N
1681056115.6,286047000.2,N
1681056135.5,286047000.0,N
1681056155.3,286047000.7,N
1681056175.1,286047000.6,N
1681056195.9,286046998.3,N
1681056215.7,286046999.4,N
1681056235.5,286046997.2,N
1681056255.4,286046999.1,N
1681056275.2,286046996.5,N
1681056295.1,286047001.0,N
1681056296.0,286047001.0,N
1681056315.8,286046998.6,N
1681056335.6,286046998.5,N
1681056355.5,286047002.7,N
1681056375.3,286047000.5,N
1681056395.2,286046998.6,N
1681056415.9,286047001.1,N
1681056435.7,286047000.5,N
1681056455.6,286047000.9,N
1681056475.4,286047000.4,N
1681056495.3,286047000.5,N
1681056515.1,286046998.1,N
1681056516.0,286046998.1,N
1681056535.8,286047000.6,N
1681056555.7,286047000.3,N
1681056575.5,286047000.6,N
1681056595.3,286046998.2,N
1681056615.2,286046998.3,N
1681056635.0,286046998.4,N
1681056635.9,286046998.4,N
1681056655.8,286046998.3,N
1681056675.6,286046999.1,N
1681056695.4,286046998.3,N
1681056715.3,286047000.4,N
1681056735.1,286047002.2,N
1681056755.8,286047002.5,N
1681056775.7,286047002.6,N
1681056795.5,286047002.2,N
1681056815.4,286047001.9,N
1681056835.2,286047002.3,N
1681056855.0,286047001.6,N
1681056855.9,286047001.6,N
1681056875.8,286047001.4,N
1681056895.6,286047001.6,N
1681056915.5,286047004.0,N
1681056935.3,286047004.1,N
1681056955.1,286047001.7,N
1681056975.9,286047004.0,N
1681056995.7,286047005.8,Y
1681057015.6,286047003.0,P
1681057035.4,286047004.4,P
1681057055.2,286047004.2,N
1681057075.1,286047001.6,N
1681057076.0,286047001.6,N
1681057095.8,286047001.8,N
1681057115.6,286047001.6,N
1681057135.5,286047002.3,N
1681057155.3,286047002.6,N
1681057205.2,286047002.3,E
1681057215.1,286046998.2,N
1681057235.8,286046999.0,P
1681057255.7,286046998.9,N
1681057275.5,286046998.9,Y
1681057295.4,286046998.7,P
1681057315.2,286047000.7,P
1681057335.0,286046998.8,N
1681057335.9,286046998.8,N
1681057355.8,286047000.4,N
1681057375.6,286047001.1,N
1681057395.5,286047000.5,N
1681057415.3,286046998.1,N
1681057435.1,286046998.8,N
1681057455.9,286047001.1,N
1681057475.7,286046998.2,N
1681057495.5,286047000.7,N
1681057515.4,286047002.8,N
1681057535.2,286046998.2,N
1681057555.1,286046998.9,N
1681057556.0,286046998.9,N
1681057575.8,286046997.7,N
1681057595.6,286046997.8,N
1681057615.5,286046997.8,N
1681057635.3,286046997.6,N
1681057655.1,286046999.0,N
1681057675.9,286046998.6,N
1681057695.7,286046999.4,N
1681057715.6,286047001.0,N
1681057735.4,286046998.9,N
1681057755.2,286047001.2,N
1681057775.1,286047000.5,N
1681057776.0,286047000.5,N
1681057795.8,286047000.0,N
1681057815.7,286047000.9,N
1681057835.5,286047000.0,N
1681057855.3,286047002.4,N
1681057875.2,286047002.6,N
1681057895.0,286047004.3,N
1681057895.9,286047004.3,N
1681057915.7,286047001.5,N
1681057935.6,286047003.9,N
1681057955.4,286047003.9,N
1681057975.3,286047003.0,N
1681057995.1,286047001.6,N
1681057996.0,286047001.6,N
1681058015.8,286047002.0,N
1681058035.7,286047002.0,N
1681058055.5,286047004.3,N
1681058075.3,286047001.4,N
1681058095.2,286047003.6,N
1681058115.0,286047004.2,N
1681058115.9,286047004.2,N
1681058135.8,286047003.9,N
1681058155.6,286047001.3,N
1681058175.4,286047006.0,Y
1681058195.3,286047004.4,P
1681058215.1,286047002.1,N
1681058235.8,286047000.8,N
1681058255.7,286047000.3,N
1681058275.5,286047000.0,N
1681058295.4,286047000.1,N
1681058315.2,286047001.1,N
1681058335.0,286047001.2,N
1681058335.9,286047001.2,N
1681058355.8,286047001.0,N
1681058375.6,286046999.7,N
1681058395.4,286046999.8,N
1681058415.3,286047000.1,N
1681058435.1,286046999.8,N
1681058455.9,286047000.9,N
1681058475.7,286046999.8,N
1681058495.5,286047002.3,N
1681058515.4,286047002.1,N
1681058535.2,286047002.1,N
1681058555.0,286047000.2,N
1681058555.9,286047000.2,N
1681058575.8,286046999.9,N
1681058595.6,286046999.9,N
1681058615.5,286047002.4,N
1681058635.3,286047002.6,N
1681058655.8,286047002.1,N
1681058675.7,286047004.2,Y
1681058695.5,286047002.3,P
1681058715.3,286047000.1,N
1681058735.2,286047002.4,N
1681058755.0,286047000.2,N
1681058755.9,286047000.2,N
1681058775.7,286047002.8,N
1681058795.6,286047001.6,N
1681058815.4,286047002.7,N
1681058835.3,286047000.0,N
1681058855.1,286047002.8,N
1681058856.0,286047002.8,N
1681058875.8,286047001.1,N
1681058895.7,286047000.9,N
1681058915.5,286047000.5,N
1681058935.3,286047000.6,N
1681058955.2,286047000.1,N
1681058975.0,286047000.5,N
1681058975.9,286047000.5,N
1681058995.8,286047000.5,N
1681059015.6,286046998.7,N
1681059035.4,286046998.8,N
1681059055.3,286046998.7,N
1681059075.1,286046998.3,N
1681059095.8,286046998.5,N
1681059115.7,286047001.0,N
1681059135.5,286047000.8,N
1681059155.4,286046998.5,N
1681059175.2,286047000.8,N
1681059195.0,286047001.2,N
1681059195.9,286047001.2,N
1681059215.8,286047000.7,N
1681059235.6,286047000.0,N
1681059255.4,286047001.0,N
1681059275.3,286047001.4,N
1681059295.1,286047002.1,N
1681059315.9,286047000.3,N
1681059335.7,286046998.2,N
1681059355.5,286047000.9,N
1681059375.4,286047001.2,N
1681059395.2,286046998.1,N
1681059415.0,286047001.0,N
1681059415.9,286047001.0,N
1681059435.8,286047000.7,N
1681059455.6,286047000.4,N
1681059475.5,286047000.6,N
1681059495.3,286047002.6,N
1681059515.1,286046999.8,N
1681059535.9,286047000.1,N
1681059555.7,286047002.1,N
1681059575.5,286047000.5,N
1681059595.4,286047002.3,N
